NWS Melbourne » East Central Florida Hourly Weather Roundup

MIARWRMLB 000
TTAA00 KMLB 012011
HOURLY WEATHER ROUNDUP AROUND FLORIDA
NATIONAL WEATHER SERVICE OFFICE MELBOURNE FL
400 PM EDT WED OCT 01 2014
  
CITY           SKY/WX    TMP DP  RH WIND       PRES   REMARKS
MELBOURNE      MOSUNNY   86  75  69 NE8       29.89F                  
FORT PIERCE    LGT RAIN  83  75  77 NE5       29.88S                  
ORLANDO INTL   TSTM      77  76  96 N7        29.92R                  
DAYTONA BEACH  LGT RAIN  81  74  79 E8        29.92S                  
VERO BEACH     MOSUNNY   83  73  72 NE9       29.88F                  
$$
...ELSEWHERE ACROSS CENTRAL FLORIDA...
  
CITY           SKY/WX    TMP DP  RH WIND       PRES   REMARKS
PATRICK AFB    PTSUNNY   82  75  79 NE8       29.90S                  
JFK SPACE CTR  PTSUNNY   82  74  76 NE8       29.90F                  
CAPE CANAVERAL SUNNY     83  76  77 NE9       29.89F                  
TITUSVILLE     PTSUNNY   82  73  74 NE10      29.91S                  
ORLANDO EXEC   CLOUDY    81  72  74 NE10      29.91S                  
LEESBURG       PTSUNNY   83  74  74 E10       29.92S                  
SANFORD        LGT RAIN  78  75  90 N7        29.92S FOG              
WINTER HAVEN   MOSUNNY   87  74  64 NW12      29.92S                  
KISSIMMEE      LGT RAIN  84  81  89 N6        29.91S FOG     HX  98   
OKEECHOBEE     LGT RAIN  84  77  79 MISG      29.90                   
TAMPA          MOSUNNY   86  72  62 W10       29.91S                  
$$
...NORTHERN FLORIDA...
  
CITY           SKY/WX    TMP DP  RH WIND       PRES   REMARKS
DELAND         PTSUNNY   77  73  88 SE5       29.94S                  
NEW SMYRNA BCH PTSUNNY   81  77  89 E6        29.92                   
ORMOND BEACH   PTSUNNY   82  73  74 E7        29.92S                  
PALM COAST     MOSUNNY   82  73  74 NE8       29.92F                  
ST AUGUSTINE   CLOUDY    79  73  83 N10       29.95S                  
THE VILLAGES     N/A     86  75  70 CALM      29.82R                  
OCALA          PTSUNNY   84  72  65 N7        29.92F                  
GAINESVILLE    CLOUDY    82  73  74 NE9       29.93F                  
JACKSONVILLE   PTSUNNY   78  73  84 E10       29.95S                  
TALLAHASSEE    CLOUDY    85  66  53 VRB5      29.94F                  
$$
...ALONG THE SOUTHEAST COAST TO THE KEYS...
  
CITY           SKY/WX    TMP DP  RH WIND       PRES   REMARKS
STUART         PTSUNNY   81  77  89 NW9       29.90                   
WEST PALM BCH  PTSUNNY   86  77  74 S5        29.88F                  
MIAMI          MOSUNNY   92  69  47 W9        29.90F                  
KEY WEST       SUNNY     87  77  72 SW9       29.91F HX  99           
$$
...MARINE REPORTS...
  
STATION/POSITION TIME  TEMP    WIND        PRES    WAVE   SWELL
                       AIR SEA DIR/SP/G            HT/PER HT/PER/DIR
                 (UTC) (F)     (DEG/KT/KT) (MB)    (FT/S) (FT/S/D)
ST AUGUSTINE FP  2000   79      20/ 14/ 16 1014.3R
20NM E CAPE CANA 2000   80 83   10/ 10/ 12 1012.5F   2/ 8   2/ 60/ 8
120 E NEW SMYRNA 2000   80 85  360/  6/  6 1013.1R   4/ 7   3/ 40/ 7
TRIDENT PIER     2000   86 84   40/  9/ 13 1012.0S
SEBASTIAN INLET  2000   80      50/  9     1013.0S
4NM E PORT CANAV 2000      83                N/A     2/ 8
6NM NE FPR INLET 2000      84                N/A     2/ 7
SETTLEMENT PT GB 2000   84     270/  4/  5 1013.4F
$$
  
 


USA.gov is the U.S. government's official web portal to all federal, state and local government web resources and services.